Location: Laval-Saint-Roman
(44.2983°N, 4.5068°E)
Time: 00:24:45
(UTC+00:00)

Daily predictions for brighter satellites

Satellite Brightness Start Highest point End
(mag) Time Altitude Azimuth Time Altitude Azimuth Time Altitude Azimuth
Resurs 1-4 Rocket 4.4 01:25:26 10° NNE 01:26:56 20° NNE 01:26:56 20° NNE
SL-16 R/B 4.5 01:35:43 20° NNW 01:35:43 20° NNW 01:37:23 10° NNW
CZ-2D R/B 4.3 01:32:01 10° NNE 01:33:36 20° NNE 01:33:36 20° NNE
USA 267 4.4 01:44:52 10° ENE 01:49:37 34° ESE 01:49:37 34° ESE
ATLAS 2AS CENTAUR R/B 4.4 01:57:45 10° NNW 02:04:22 31° NNE 02:10:33 10° E
SL-4 R/B 4.3 02:21:54 25° E 02:21:54 25° E 02:24:02 10° ENE
ADEOS II 3.4 02:15:22 10° NNE 02:18:19 35° N 02:18:19 35° N
IDEFIX/ARIANE 42P 3.6 02:17:39 10° NNE 02:22:24 41° E 02:22:24 41° E
USA 234 4.2 02:20:03 10° E 02:26:08 43° NNE 02:30:47 17° NW
Cosmos 1238 Rocket 4.1 02:27:52 10° N 02:33:17 63° N 02:33:17 63° N
Cosmos 1605 Rocket 4.4 02:28:11 10° N 02:34:34 63° E 02:37:19 35° SSE
Cosmos 2360 Rocket 4.3 02:33:12 15° SE 02:36:11 22° E 02:40:23 10° NE
H-2A R/B 4.3 02:33:48 10° ESE 02:37:24 25° ENE 02:41:04 10° N
Cosmos 1697 Rocket 4.2 02:40:57 25° NNW 02:40:57 25° NNW 02:44:12 10° N
Cosmos 1980 Rocket 3.1 02:47:19 38° NNW 02:47:19 38° NNW 02:51:28 10° NNE
Cosmos 2263 Rocket 3.9 02:43:31 10° NNW 02:45:20 21° NNW 02:45:20 21° NNW
ASTEX 1 3.9 02:47:32 10° N 02:51:25 54° N 02:51:25 54° N
Cosmos 2322 Rocket 2.6 02:54:20 49° SSE 02:55:25 57° ESE 03:01:01 10° NNE
Cosmos 1898 Rocket 3.7 02:52:24 10° NNW 02:57:40 70° ENE 03:02:56 10° SSE
Cosmos 1666 4.2 02:56:23 10° N 02:59:07 35° NE 02:59:07 35° NE
Spot 4 Rocket 4.0 02:55:34 10° NNE 03:00:44 80° ESE 03:01:01 77° SE
Lacrosse 5 3.4 03:01:39 24° NNW 03:02:02 24° NNW 03:06:09 10° NE
Meteor 1-11 Rocket 4.2 02:56:25 10° N 03:02:06 59° ENE 03:07:38 10° SSE
Cosmos 921 Rocket 4.4 03:05:08 28° N 03:05:08 28° N 03:07:20 10° N
Cosmos 1812 4.3 03:08:14 29° N 03:08:14 29° N 03:10:15 10° N
SL-16 R/B 2.1 03:06:39 68° SSW 03:07:26 86° ESE 03:13:09 10° NNE
Meteor 1-27 Rocket 4.4 03:05:04 20° SSE 03:09:09 56° E 03:14:54 10° NNE
Resurs 1-4 Rocket 4.3 03:07:06 10° NNW 03:08:01 12° NW 03:08:01 12° NW
IRIDIUM 104 4.3 03:07:31 10° N 03:12:46 80° E 03:15:22 31° S
Cosmos 1727 Rocket 4.1 03:09:26 26° S 03:13:14 76° E 03:19:33 10° N
Cosmos 1339 Rocket 4.4 03:12:48 59° WSW 03:13:38 65° W 03:19:48 10° N
CZ-2D R/B 4.3 03:14:16 10° NNW 03:14:55 11° NW 03:14:55 11° NW
Cosmos 1937 Rocket 3.6 03:12:01 10° NNW 03:17:11 74° ENE 03:22:18 10° SSE
CZ-4C R/B 4.1 03:20:02 40° N 03:20:02 40° N 03:22:28 10° N
FALCON 9 DEB 4.4 03:20:10 37° NNE 03:20:10 37° NNE 03:22:31 10° NE
Cosmos 841 Rocket 4.1 03:18:30 27° S 03:21:13 55° ESE 03:26:22 10° NNE
IRIDIUM 114 4.2 03:16:40 10° N 03:21:55 85° W 03:24:29 31° S
Cosmos 1536 3.3 03:21:03 10° N 03:25:06 61° E 03:29:07 10° SSE
Cosmos 1763 Rocket 3.4 03:25:16 58° SW 03:26:11 71° WNW 03:31:29 10° NNE
CZ-2D R/B 4.2 03:24:05 10° N 03:27:24 42° NW 03:27:24 42° NW
USA 32 4.0 03:25:04 10° N 03:30:21 82° E 03:35:36 10° S
ARIANE 5 R/B 3.1 03:26:03 10° N 03:30:25 38° WNW 03:30:25 38° WNW
IRIDIUM 103 4.2 03:25:51 10° N 03:31:03 71° W 03:33:37 30° SSW
NOSS 3-4 (A) 3.9 03:25:23 10° NW 03:32:27 85° NE 03:40:17 10° SE
NOSS 3-4 (C) 3.9 03:25:30 10° NW 03:32:34 84° NE 03:40:24 10° SE
Cosmos 1707 Rocket 3.4 03:32:27 56° SSW 03:33:20 84° W 03:37:43 10° N
USA 267 3.3 03:27:39 10° NE 03:34:09 71° NW 03:36:57 37° WSW
ADEOS Rocket 3.6 03:30:44 10° SSE 03:37:14 61° ENE 03:43:06 10° N
CZ-4B R/B 3.6 03:37:24 10° SE 03:40:08 26° ENE 03:42:57 10° N
ERS-2 2.7 03:37:43 10° SSE 03:41:19 58° ENE 03:44:55 10° N
Meteor 1-5 Rocket 4.4 03:36:32 10° NNW 03:41:33 42° W 03:42:00 41° WSW
Cosmos 540 Rocket 3.4 03:38:54 27° SSW 03:41:49 83° ESE 03:47:01 10° NNE
MSX 3.9 03:40:06 10° N 03:45:45 57° WNW 03:48:33 29° SW
Cosmos 44 Rocket 3.1 03:44:48 40° SW 03:46:30 83° NW 03:51:24 10° NNE
Cosmos 1733 Rocket 3.0 03:43:58 10° N 03:48:21 83° E 03:52:39 10° S
IRIDIUM 106 4.5 03:44:18 10° NNW 03:49:19 48° W 03:51:58 26° SSW
Cosmos 1743 3.8 03:47:16 10° N 03:50:58 46° ENE 03:54:38 10° SSE
Cosmos 990 Rocket 4.4 03:46:30 10° NW 03:51:14 36° WSW 03:55:59 10° SSW
PAYLOAD A 3.7 03:48:38 10° NNE 03:53:20 82° WNW 03:57:13 15° SSW
Landsat 5 3.7 03:50:27 10° S 03:54:50 52° W 03:59:12 10° NNW
Cosmos 2333 Rocket 3.6 03:50:17 10° S 03:55:32 38° ESE 04:00:50 10° NE
ATLAS 2AS CENTAUR R/B 2.7 03:48:45 10° NW 03:56:15 85° WSW 04:03:06 10° SSE
Cosmos 2173 Rocket 4.0 03:50:14 10° N 03:56:37 84° W 04:02:59 10° S
ADEOS 4.4 03:51:56 10° NNE 03:57:03 52° E 04:02:06 10° S
BREEZE M DEB (TANK) 3.9 03:45:28 10° WNW 03:58:15 47° SW 04:02:21 10° SSE
CZ-2C R/B 3.5 03:55:29 10° N 03:58:54 33° WNW 03:58:54 33° WNW
SL-4 R/B 2.8 03:57:30 32° WNW 03:59:18 50° NNW 04:03:58 10° NE
ADEOS II 4.0 03:57:20 10° NNW 03:59:15 13° NW 03:59:15 13° NW
Cosmos 2322 4.4 03:54:50 10° S 04:00:18 53° ESE 04:05:48 10° NE
IDEFIX/ARIANE 42P 3.5 03:57:36 10° N 04:02:03 28° WNW 04:03:12 26° W
Cosmos 1570 Rocket 4.0 03:58:30 21° SSW 04:02:06 69° WNW 04:07:28 10° NNE
PSLV R/B 3.4 03:58:27 10° N 04:02:37 68° WNW 04:05:43 17° SSW
BREEZE-M DEB (TANK) 2.8 03:59:36 25° WSW 04:03:37 81° SSE 04:06:38 10° ENE
USA 276 2.4 04:03:18 32° NW 04:04:36 65° NNE 04:07:47 10° ESE
Meteor 2-20 4.5 03:59:51 10° S 04:05:58 86° E 04:12:07 10° N
Cosmos 1862 Rocket 3.4 04:03:51 10° SSW 04:08:12 73° W 04:12:33 10° N
USA 234 3.2 04:02:18 10° SE 04:08:51 79° SW 04:15:25 10° NW
BREEZE-M DEB (TANK) 3.8 04:08:00 25° WNW 04:09:43 50° N 04:17:45 10° ENE
H-2A R/B 2.7 04:09:10 10° SSW 04:13:12 35° W 04:17:19 10° NNW
CZ-4C R/B 3.7 04:06:52 10° NNW 04:13:54 56° NE 04:21:59 10° SE
SAR-Lupe-4 4.0 04:10:45 10° SSE 04:14:17 63° ENE 04:17:51 10° N
Cosmos 1689 Rocket 4.3 04:13:42 10° SE 04:16:18 28° ENE 04:18:56 10° N
ALOS 2.9 04:11:53 10° NNE 04:16:31 59° E 04:21:06 10° S
PKM 3.8 04:14:43 15° WNW 04:17:40 66° SW 04:21:42 10° SE
Cosmos 2333 4.4 04:12:42 10° SSW 04:18:27 76° ESE 04:24:15 10° NNE
FENGYUN 3A 4.1 04:13:31 10° NNE 04:18:54 65° ESE 04:24:15 10° S
Cosmos 2360 Rocket 2.3 04:15:02 15° SW 04:19:42 59° WNW 04:25:19 10° NNE
CZ-2C R/B 2.7 04:19:16 10° N 04:24:15 50° WNW 04:29:15 10° SW
Cosmos 1975 3.8 04:20:33 10° N 04:24:28 51° ENE 04:28:21 10° SSE
Meteor 1-18 Rocket 4.4 04:21:38 10° S 04:27:09 74° E 04:32:44 10° NNE
Cosmos 372 Rocket 4.0 04:23:13 10° NNW 04:28:14 54° WSW 04:33:11 10° S
Cosmos 2016 Rocket 3.9 04:22:19 10° NNW 04:28:24 72° W 04:34:27 10° S
SAR-Lupe-1 3.9 04:29:47 10° S 04:33:21 80° WSW 04:36:57 10° NNW
Cosmos 1484 Rocket 2.8 04:29:45 10° N 04:33:47 85° W 04:37:47 10° SSW
Cosmos 2061 Rocket 4.1 04:28:52 10° NNW 04:35:15 66° W 04:41:34 10° S
ATLAS CENTAUR Rocket 4.3 04:28:24 13° WSW 04:35:35 23° SSW 04:39:43 10° SSE
Cosmos 1515 3.6 04:32:52 10° S 04:36:40 84° WNW 04:40:27 10° N
X-37B 2.9 04:36:50 11° SW 04:36:56 11° SW 04:37:49 10° SSW
Cosmos 1844 Rocket 2.8 04:31:47 10° NW 04:37:14 52° WSW 04:42:42 10° S
Cosmos 2233 Rocket 4.2 04:31:58 10° N 04:38:08 74° E 04:44:15 10° SSE
Cosmos 2322 Rocket 3.3 04:36:12 14° W 04:39:50 26° NW 04:44:34 10° N
Cosmos 2278 Rocket 3.7 04:36:51 10° NNW 04:42:08 39° NE 04:47:24 10° SE
Okean 1 3.5 04:40:45 10° SSW 04:44:41 51° WNW 04:48:39 10° N
Cosmos 1844 3.8 04:40:38 10° NW 04:46:02 53° WSW 04:51:25 10° S
Lacrosse 5 3.9 04:42:50 10° NW 04:46:31 20° N 04:50:13 10° NE
Meteor 1-31 Rocket 2.7 04:42:50 10° N 04:46:41 75° WNW 04:50:31 10° SSW
COSMO-SKYMED 1 2.9 04:42:42 10° SSE 04:47:01 71° ENE 04:51:22 10° N
Cosmos 1725 Rocket 4.0 04:45:00 10° NNW 04:51:03 58° W 04:57:04 10° S
Cosmos 1437 Rocket 3.4 04:48:04 10° SW 04:51:33 33° WNW 04:55:05 10° N
Meteor 2-9 Rocket 4.1 04:46:21 10° NNW 04:51:50 79° W 04:57:09 10° S
SL-16 R/B 3.7 04:48:33 10° W 04:52:19 19° NW 04:56:13 10° N
Cosmos 2298 Rocket 4.2 04:47:56 10° NNW 04:53:04 50° WSW 04:58:09 10° S
deb Chang Zheng 4 3.9 04:49:33 10° N 04:53:38 44° WNW 04:57:41 10° SW
SJ-12 4.1 04:49:52 10° NNE 04:54:02 80° ESE 04:58:10 10° S
Cosmos 1782 Rocket 3.6 04:57:44 10° NNW 05:02:13 77° W 05:06:40 10° S
Cosmos 1908 Rocket 4.0 04:59:11 10° NNW 05:03:24 41° W 05:07:34 10° SSW
Cosmos 1703 Rocket 3.7 05:00:20 10° SSW 05:04:33 51° WNW 05:08:49 10° N
Okean 1-7 3.1 05:00:59 10° SSW 05:05:09 55° WNW 05:09:20 10° N
Cosmos 2219 Rocket 2.3 05:01:56 10° SW 05:07:34 66° WNW 05:13:15 10° NNE
